Regional Weather Roundup
Issued by NWS

Home | Current Version | Previous Version | Graphics & Text | Print | Product List | Glossary On
Versions: 1 2 3 4 5 6 7 8 9 10 11 12 13 14 15 16 17 18 19 20 21 22 23 24 25 26 27
000
ASUS45 KCYS 232110
RWRWY

WYOMING REGIONAL WEATHER ROUNDUP
NATIONAL WEATHER SERVICE CHEYENNE WY
200 PM MST FRI FEB 23 2018

NOTE:  "FAIR" INDICATES FEW OR NO CLOUDS BELOW 12,000 FEET
WITH NO SIGNIFICANT WEATHER AND/OR OBSTRUCTIONS TO VISIBILITY.

WYZ001-232200-
YELLOWSTONE NATIONAL PARK

CITY           SKY/WX    TMP DP  RH WIND       PRES   REMARKS
LK YELLOWSTONE   N/A      9   1  70 CALM      29.88F
W YELLOWSTONE  NOT AVBL

$$
WYZ002>013-054>058-071-098>099-232200-
NORTHERN WYOMING

CITY           SKY/WX    TMP DP  RH WIND       PRES   REMARKS
JACKSON        FAIR      21   9  59 S5        29.92F WCI  15
CODY           FAIR      34   6  31 CALM      29.94
GREYBULL       FAIR      10   3  73 SE6       30.03F WCI   0
WORLAND        FAIR      16   3  56 CALM      30.00F
SHERIDAN       FAIR      13   2  61 CALM      29.99F
BUFFALO        FAIR      21   8  57 CALM      29.93F
GILLETTE       FAIR      22  11  62 S17       29.97F WCI   8
HULETT         FAIR      30   5  34 W10       30.00F WCI  21
NEWCASTLE      FAIR      18   5  57 SE6       30.06F WCI   9

$$
WYZ014>020-022>026-101>103-232200-
CENTRAL WYOMING

CITY           SKY/WX    TMP DP  RH WIND       PRES   REMARKS
BIG PINEY      FAIR      24   8  50 VRB7      29.87F WCI  16
PINEDALE       FAIR      21   9  58 NW12      29.87F WCI   9
DUBOIS           N/A    N/A N/A N/A MISG        N/A
LANDER         FAIR      17   7  64 SE3       29.93F
RIVERTON       FAIR      14   2  58 CALM      29.94F
CASPER         FAIR      16   6  65 E3        29.94F
DOUGLAS        FAIR      17   8  67 CALM      29.97F

$$
WYZ021-027>030-104>119-232200-
SOUTHERN WYOMING

CITY           SKY/WX    TMP DP  RH WIND       PRES   REMARKS
EVANSTON       LGT SNOW  14  10  84 SW6       29.89S VSB 3/4 WCI   5
ROCK SPRINGS   LGT SNOW  21  14  74 CALM      29.85F
DIXON          FAIR      32  15  49 SW13      29.87S WCI  22
RAWLINS        HAZE      20  15  81 E6        29.86F VSB 1/2 WCI  12
SARATOGA       CLOUDY    30  18  59 W14       29.84S WCI  20
LARAMIE        PTSUNNY   26  17  68 SE22      29.82F WCI  12
CHEYENNE       CLOUDY    23  18  81 S12       29.93F WCI  12
TORRINGTON     FAIR      32  15  49 SE12G21   30.01F WCI  23
PINE BLUFFS    FAIR      30  18  59 MISG      29.99F

$$




USA.gov is the U.S. government's official web portal to all federal, state and local government web resources and services.